Apalachia Observed Data For Previous 48 Hours

Caption
Day and Hour Reservoir Elevation (behind dam)* Tailwater Elevation (below dam)* Average Hourly Discharge*
9/20/2018 2 AM EDT 1,277.61 840.29 2,843
9/20/2018 3 AM EDT 1,277.34 840.30 2,827
9/20/2018 4 AM EDT 1,277.20 840.32 2,830
9/20/2018 5 AM EDT 1,276.84 840.30 2,819
9/20/2018 6 AM EDT 1,276.62 840.28 2,810
9/20/2018 7 AM EDT 1,276.45 840.28 2,809
9/20/2018 8 AM EDT 1,276.36 840.29 2,795
9/20/2018 9 AM EDT 1,276.01 840.26 2,788
9/20/2018 10 AM EDT 1,275.80 840.28 2,788
9/20/2018 11 AM EDT 1,275.65 840.30 2,781
9/20/2018 12 PM EDT 1,275.44 840.25 2,778
9/20/2018 1 PM EDT 1,275.22 840.26 2,773
9/20/2018 2 PM EDT 1,275.27 840.29 2,771
9/20/2018 3 PM EDT 1,275.27 840.24 2,764
9/20/2018 4 PM EDT 1,275.64 840.23 2,774
9/20/2018 5 PM EDT 1,276.19 840.23 2,792
9/20/2018 6 PM EDT 1,276.76 840.24 2,800
9/20/2018 7 PM EDT 1,277.62 840.24 2,822
9/20/2018 8 PM EDT 1,277.97 840.21 2,841
9/20/2018 9 PM EDT 1,277.97 840.27 2,839
9/20/2018 10 PM EDT 1,278.23 840.26 2,851
9/20/2018 11 PM EDT 1,277.80 840.28 2,844
9/21/2018 12 AM EDT 1,277.70 840.27 2,836
9/21/2018 1 AM EDT 1,277.50 840.30 2,830
9/21/2018 2 AM EDT 1,277.68 840.28 2,825
9/21/2018 3 AM EDT 1,277.63 840.30 2,832
9/21/2018 4 AM EDT 1,277.68 840.30 2,831
9/21/2018 5 AM EDT 1,277.26 840.29 2,825
9/21/2018 6 AM EDT 1,277.02 840.28 2,818
9/21/2018 7 AM EDT 1,276.98 840.30 2,818
9/21/2018 8 AM EDT 1,276.94 840.30 2,810
9/21/2018 9 AM EDT 1,276.63 840.27 2,802
9/21/2018 10 AM EDT 1,276.42 840.27 2,802
9/21/2018 11 AM EDT 1,276.13 840.31 2,788
9/21/2018 12 PM EDT 1,276.13 840.28 2,796
9/21/2018 1 PM EDT 1,275.71 840.26 2,787
9/21/2018 2 PM EDT 1,275.71 840.26 2,781
9/21/2018 3 PM EDT 1,275.71 840.24 2,789
9/21/2018 4 PM EDT 1,276.29 840.25 2,803
9/21/2018 5 PM EDT 1,276.90 840.25 2,813
9/21/2018 6 PM EDT 1,277.58 840.26 2,820
9/21/2018 7 PM EDT 1,278.26 840.26 2,843
9/21/2018 8 PM EDT 1,278.36 840.26 2,859
9/21/2018 9 PM EDT 1,278.57 840.26 2,868
9/21/2018 10 PM EDT 1,278.31 840.27 2,869
9/21/2018 11 PM EDT 1,278.28 840.27 2,857
9/22/2018 12 AM EDT 1,277.91 840.31 2,856
9/22/2018 1 AM EDT 1,277.68 840.26 2,842
9/22/2018 2 AM EDT 1,277.68 840.27 2,846
9/22/2018 3 AM EDT 1,277.34 840.31 2,846
9/22/2018 4 AM EDT 1,277.08 840.29 2,829
9/22/2018 5 AM EDT 1,276.85 840.27 2,826
9/22/2018 6 AM EDT 1,276.85 840.32 2,809
9/22/2018 7 AM EDT 1,276.51 840.28 2,800
9/22/2018 8 AM EDT 1,276.25 840.27 2,791
9/22/2018 9 AM EDT 1,276.05 840.24 2,800
9/22/2018 10 AM EDT 1,276.05 840.28 2,792
9/22/2018 11 AM EDT 1,275.99 840.24 2,789
9/22/2018 12 PM EDT 1,275.99 840.24 2,776
9/22/2018 1 PM EDT 1,276.16 840.26 2,784
9/22/2018 2 PM EDT 1,276.16 840.27 2,058
9/22/2018 3 PM EDT 1,276.33 840.23 1,769
9/22/2018 4 PM EDT 1,277.07 840.23 1,766
9/22/2018 5 PM EDT 1,277.54 840.27 1,770

Elevations are in feet above sea level. Discharges are in cubic feet per second and are reported at the end of the hour.